Location: Unspecified
(33.6682°S, 0.0000°E)
Time: 11:05:29
(UTC+00:00)

Tiros 1 despin weight - Pass Details

Date: 18 June 2019
Orbit: 594 x 643 km, 48.2° (Epoch: 22 July)

Event Time Altitude Azimuth Distance (km) Brightness Sun altitude
Rises 17:32:36 0° 226° (SW) 2,971 ? -7.2°
Reaches altitude 10° 17:35:13 10° 215° (SW) 2,056 ? -7.7°
Maximum altitude 17:39:21 29° 154° (SSE) 1,192 ? -8.5°
Enters shadow 17:43:20 11° 94° (E) 1,995 ? -9.3°
Drops below altitude 10° 17:43:26 10° 94° (E) 2,028 - -9.3°
Sets 17:46:00 0° 82° (E) 2,924 - -9.8°
